N1PLV Weather Reports


time (UTC)temp
F
wind
direction
speed
knots
gust
knots
rain 1hr
in
rain 24hr
in
rain mn
in
humidity
%
barometer
mb
20230128005941 44 178 0.9 1.7 0.00 0.00 0.00 68 1025.2
20230128004441 44 153 1.7 4.3 0.00 0.00 0.00 67 1025.2
20230128002941 45 158 2.6 6.1 0.00 0.00 0.00 66 1024.9
20230128001441 45 154 2.6 6.1 0.00 0.00 0.00 66 1024.8
20230127232941 45 155 1.7 5.2 0.00 0.00 0.00 65 1024.3
20230127231441 45 157 2.6 6.1 0.00 0.00 0.00 63 1024.4
20230127225941 45 155 3.5 7.0 0.00 0.00 0.00 62 1024.2
20230127224441 46 136 2.6 7.0 0.00 0.00 0.00 61 1023.9
20230127222941 46 219 3.5 9.6 0.00 0.00 0.00 61 1023.9
20230127221441 46 234 1.7 4.3 0.00 0.00 0.00 60 1023.8
20230127215941 47 290 2.6 7.0 0.00 0.00 0.00 57 1023.5
20230127214441 48 308 3.5 7.0 0.00 0.00 0.00 56 1023.4
20230127211441 50 288 4.3 9.6 0.00 0.00 0.00 52 1023.2
20230127204441 50 316 5.2 11.3 0.00 0.00 0.00 51 1023.1
20230127202958 50 291 6.1 11.3 0.00 0.00 0.00 50 1023.0
20230127201441 50 318 6.1 12.2 0.00 0.00 0.00 50 1023.0
20230127195942 50 355 5.2 13.0 0.00 0.00 0.00 50 1023.0
20230127194441 50 284 6.1 13.0 0.00 0.00 0.00 50 1022.8
20230127192941 50 290 5.2 11.3 0.00 0.00 0.00 50 1022.9
20230127191441 49 294 6.1 13.9 0.00 0.00 0.00 52 1022.8
20230127185941 48 270 7.0 14.8 0.00 0.00 0.00 52 1022.8
20230127184441 49 340 6.1 13.0 0.00 0.00 0.00 51 1022.7
20230127182942 49 290 6.1 11.3 0.00 0.00 0.00 51 1022.8
20230127181441 48 318 7.0 13.9 0.00 0.00 0.00 52 1022.9
20230127175958 49 316 4.3 11.3 0.00 0.00 0.00 49 1023.0
20230127174441 49 290 5.2 10.4 0.00 0.00 0.00 50 1023.1
20230127172957 48 333 4.3 8.7 0.00 0.00 0.00 52 1023.1
20230127165942 48 271 4.3 7.8 0.00 0.00 0.00 52 1023.5
20230127164441 47 268 5.2 8.7 0.00 0.00 0.00 53 1023.9
20230127162941 47 299 4.3 7.8 0.00 0.00 0.00 53 1024.1
20230127161441 48 259 3.5 7.8 0.00 0.00 0.00 52 1024.3
20230127154441 47 294 4.3 10.4 0.00 0.00 0.00 57 1024.6
20230127151441 46 266 6.1 11.3 0.00 0.00 0.00 56 1024.7
20230127145941 46 333 4.3 8.7 0.00 0.00 0.00 56 1024.7
20230127142941 45 350 2.6 5.2 0.00 0.00 0.00 56 1024.3
20230127141441 45 298 3.5 7.8 0.00 0.00 0.00 60 1024.4
20230127135942 44 298 2.6 7.0 0.00 0.00 0.00 61 1024.1
20230127134441 43 332 2.6 7.0 0.00 0.00 0.00 64 1024.0
20230127132944 42 311 2.6 7.8 0.00 0.00 0.00 66 1023.7
20230127131443 41 309 2.6 4.3 0.00 0.00 0.00 67 1023.5
20230127124443 40 307 2.6 7.0 0.00 0.00 0.00 69 1022.9
20230127122943 39 312 3.5 7.8 0.00 0.00 0.00 69 1022.7
20230127121443 39 329 2.6 5.2 0.00 0.00 0.00 70 1022.6
20230127115943 39 321 2.6 5.2 0.00 0.00 0.00 71 1022.5
20230127114443 39 299 1.7 4.3 0.00 0.00 0.00 70 1022.3
20230127112943 40 324 1.7 4.3 0.00 0.00 0.00 70 1022.0
20230127111442 40 331 2.6 5.2 0.00 0.00 0.00 70 1021.8
20230127105943 41 321 2.6 7.8 0.00 0.00 0.00 69 1021.6
20230127102943 42 327 3.5 9.6 0.00 0.00 0.00 70 1021.3
20230127101443 41 290 2.6 7.0 0.00 0.00 0.00 74 1021.2
20230127094443 43 258 5.2 9.6 0.00 0.00 0.00 80 1020.6
20230127092943 43 360 5.2 9.6 0.00 0.00 0.00 80 1020.7
20230127091443 43 244 3.5 7.8 0.00 0.00 0.00 79 1020.5
20230127085943 43 212 2.6 6.1 0.00 0.00 0.00 79 1020.3
20230127082943 42 240 1.7 4.3 0.00 0.01 0.00 78 1020.0
20230127081443 41 251 0.9 1.7 0.00 0.01 0.00 75 1020.1
20230127075943 41 268 0.0 0.0 0.00 0.01 0.00 72 1019.9
20230127074443 41 275 0.0 0.0 0.00 0.01 0.00 70 1019.7
20230127072943 42 302 0.0 1.7 0.00 0.01 0.00 69 1019.6
20230127065944 43 302 1.7 4.3 0.00 0.01 0.00 68 1019.6
20230127064443 44 360 1.7 4.3 0.00 0.09 0.00 68 1019.5
20230127062944 44 360 1.7 4.3 0.00 0.09 0.00 67 1019.5
20230127061443 44 360 0.9 3.5 0.00 0.09 0.00 69 1019.4
20230127055943 44 308 1.7 4.3 0.00 0.09 0.00 69 1019.0
20230127054443 44 325 1.7 3.5 0.00 0.24 0.00 70 1019.0
20230127052943 45 321 1.7 3.5 0.00 0.24 0.00 71 1019.0
20230127051443 46 300 2.6 7.8 0.00 0.24 0.00 70 1018.9
20230127045943 46 315 3.5 7.0 0.00 0.33 0.24 72 1018.8
20230127044443 46 267 5.2 10.4 0.00 0.33 0.24 77 1018.8
20230127042944 46 283 4.3 8.7 0.00 0.33 0.24 80 1018.8
20230127041443 46 255 1.7 3.5 0.00 0.33 0.24 80 1018.8
20230127035943 46 229 1.7 3.5 0.00 0.33 0.24 79 1018.6
20230127034443 46 209 0.9 2.6 0.00 0.33 0.24 79 1018.5
20230127032943 46 223 1.7 3.5 0.00 0.33 0.24 79 1018.4
20230127031443 45 226 0.9 2.6 0.00 0.33 0.24 78 1018.1
20230127024442 44 265 1.7 2.6 0.00 0.33 0.24 78 1018.1
20230127022943 44 321 0.0 0.9 0.00 0.33 0.24 76 1018.0
20230127021443 44 322 0.0 0.9 0.00 0.33 0.24 75 1017.9
20230127015943 45 322 0.0 0.9 0.00 0.33 0.24 74 1018.0
20230127014443 46 321 0.9 2.6 0.00 0.33 0.24 74 1017.9
20230127012942 46 317 0.9 3.5 0.00 0.33 0.24 73 1017.7
20230127011442 47 309 1.7 3.5 0.00 0.33 0.24 73 1017.6